User: anonymous   Login
Location: Caltech
(34.1382°N, 118.1253°W)
Time: 04:00:57
(UTC-07:00)
Language:

Iridium 18 - Orbit

View from above orbital plane
View from above orbital plane
View from above satellite
View from above satellite

Ground track
Ground track

The orbit data is extracted from the following two-line orbital elements,

1 24872U 97034D   18175.21938770  .00280750 -99064-6  45801-3 0  9993
2 24872  86.3799 224.9683 0309541 291.5318  65.3209 15.52674533 97600
Epoch (UTC): 24 June 2018 05:15:55
Eccentricity: 0.0309541
inclination: 86.3799°
perigee height: 199 km
apogee height: 619 km
right ascension of ascending node: 224.9683°
argument of perigee: 291.5318°
revolutions per day: 15.52674533
mean anomaly at epoch: 65.3209°
orbit number at epoch: 9760

The dashed part of the orbit path shows where the satellite is in the earth's shadow,  

DLR